Location: Chin
(49.7667°N, 112.4500°W)
Time: 11:02:33
(UTC+00:00)

N. Korean satellite - Pass Details

Date: 11 December 2021
Orbit: 447 x 491 km, 97.3° (Epoch: 21 January)

Event Time Altitude Azimuth Distance (km) Brightness Sun altitude
Rises 01:07:00 0° 217° (SW) 2,501 11.1 -14.9°
Reaches altitude 10° 01:10:33 10° 256° (WSW) 1,619 10.6 -15.4°
Maximum altitude 01:11:29 11° 271° (W) 1,566 10.3 -15.6°
Drops below altitude 10° 01:12:24 10° 287° (WNW) 1,616 10.1 -15.7°
Sets 01:15:57 0° 326° (NNW) 2,486 10.4 -16.3°
